Wind_Speed
46 46 46 46 45 43 42 41 40 39 39 38 37 36 35 35 35 34 34 34 34 34 34 34 34 35 35 36 37 37 38 39 40 41 41 42 42 42 43 44 44 44 45
45 45 45 45 44 44 42 41 40 39 39 38 37 37 37 36 36 36 35 35 36 36 36 36 36 37 38 38 39 40 41 41 42 43 44 44 43 44 46 46 47 47 47
44 44 45 45 45 44 44 43 42 41 40 40 39 39 38 38 37 37 37 38 38 38 38 38 38 39 39 40 41 42 42 43 44 44 46 46 46 47 48 48 49 50 50
44 44 44 45 45 44 43 43 42 41 41 41 40 40 39 39 39 39 39 39 39 39 39 40 40 41 41 42 42 43 43 44 45 46 47 48 49 50 50 50 51 52 53
45 44 45 45 45 45 44 43 43 42 42 41 41 40 40 40 40 40 40 40 40 40 41 41 42 42 43 43 43 44 45 45 46 47 48 50 51 51 52 53 53 54 54
46 45 45 45 45 45 45 45 44 43 43 43 42 42 41 41 41 41 41 41 41 42 42 43 43 43 43 44 44 45 45 46 47 48 49 51 52 53 54 55 54 55 55
45 46 45 45 45 45 45 45 45 44 44 44 44 43 43 42 42 41 41 42 42 43 43 43 43 43 43 44 44 45 46 47 48 48 50 51 53 54 54 54 55 55 55
43 45 45 46 46 45 45 45 45 44 44 44 44 43 43 43 42 42 43 43 43 43 43 43 43 43 43 44 44 45 46 46 47 48 49 51 51 52 53 54 56 57 56
42 43 44 45 46 46 45 44 44 44 43 43 43 43 43 43 43 43 43 43 42 42 42 43 43 43 43 43 44 44 44 45 46 47 48 49 50 51 52 53 54 55 54
41 42 42 43 44 45 45 44 44 44 43 43 43 42 42 42 42 42 42 42 42 42 42 42 42 42 42 43 42 42 43 44 45 46 46 47 48 49 50 50 51 50 50
39 40 41 41 41 42 43 43 42 42 42 42 41 41 41 41 41 41 41 41 41 41 41 41 41 41 41 41 41 41 42 42 43 44 44 44 45 46 46 46 46 46 46
37 38 39 40 40 40 41 41 41 41 41 40 40 40 40 40 40 40 40 40 40 40 40 40 40 39 39 39 40 40 40 40 41 41 41 42 42 42 42 42 42 41 41
35 36 38 39 39 39 39 40 40 40 40 39 39 39 39 39 39 39 39 39 39 39 38 38 38 38 37 38 38 38 38 39 39 39 39 39 39 38 38 37 37 36 36
33 34 36 37 38 38 38 38 38 38 38 38 38 38 38 37 37 37 37 37 36 36 36 36 36 36 36 36 36 36 36 37 37 36 36 36 36 36 35 35 34 34 34
29 31 32 33 35 35 36 36 36 36 37 36 36 36 36 36 35 35 35 35 35 35 34 34 34 35 35 35 35 35 35 35 34 34 34 34 34 34 33 33 33 32 31
27 28 29 30 31 31 32 33 33 34 34 34 34 34 34 34 34 34 34 33 33 33 33 33 33 33 33 33 33 33 33 33 33 32 32 32 32 32 31 31 31 30 29
24 25 25 26 28 29 29 30 31 31 31 31 31 31 32 32 32 32 31 31 31 31 32 31 32 32 32 32 32 32 32 31 31 31 31 31 31 31 31 31 30 30 31
23 23 23 24 25 26 27 28 28 29 29 29 29 29 29 30 29 29 29 30 30 30 30 30 30 30 30 30 30 30 30 30 31 31 31 31 31 31 31 31 32 32 32
22 22 23 23 24 24 25 26 26 27 27 27 27 27 27 27 27 27 28 28 28 28 28 29 29 29 29 29 29 29 29 30 30 31 31 31 31 31 32 33 33 33 34
21 22 22 22 23 24 24 24 24 25 25 25 25 25 25 25 25 26 26 26 26 27 27 28 28 28 28 28 28 29 29 30 30 31 31 31 32 32 33 33 34 35 36
21 22 22 22 22 23 23 23 23 23 24 24 24 24 24 24 24 24 24 25 25 26 26 26 26 26 27 27 28 28 29 30 31 31 31 32 33 34 34 35 36 37 38
21 21 21 21 21 22 22 22 22 23 23 23 23 23 23 23 23 23 23 24 24 25 25 25 26 26 26 27 27 28 29 30 31 32 33 33 34 35 36 36 37 39 40
20 20 21 21 21 21 21 21 21 22 22 22 22 22 22 22 23 23 23 23 23 24 24 24 25 26 26 27 28 29 30 31 32 33 33 34 35 36 37 38 39 41 42
20 21 21 21 21 21 21 21 21 21 21 21 22 22 22 22 22 22 22 22 23 23 24 25 26 26 27 28 29 30 31 32 33 34 34 35 36 37 39 40 41 43 44
21 21 21 21 21 21 21 21 21 21 21 22 22 22 22 22 22 22 22 23 23 24 25 26 27 28 28 29 30 31 32 33 34 35 36 37 38 39 40 42 43 44 46
21 21 21 21 21 22 22 21 22 22 22 22 22 22 22 22 23 23 23 24 24 25 26 27 28 29 29 30 31 32 33 34 35 36 37 38 39 40 42 43 45 46 47
Wind_Direction
225 226 227 228 230 232 234 237 239 241 244 247 250 253 256 259 262 265 269 272 274 277 278 280 281 283 284 285 286 286 287 287 286 286 286 285 285 285 283 282 281 280 279
227 227 228 229 231 233 235 237 240 242 245 248 251 254 257 260 263 266 269 271 274 276 278 280 281 283 284 285 286 287 287 287 287 287 287 286 286 286 284 284 283 282 281
228 229 230 231 232 234 236 238 240 243 246 249 252 255 258 261 264 266 268 270 273 276 278 280 282 283 285 286 287 287 288 288 288 288 288 288 287 285 285 285 284 284 282
229 230 231 232 233 235 236 239 241 244 247 250 253 256 258 261 264 266 268 271 273 276 278 280 282 283 285 286 287 288 288 288 289 289 289 289 288 287 286 286 286 285 283
230 231 232 233 234 236 237 239 242 245 248 250 253 256 258 261 263 266 268 270 273 276 278 280 281 283 285 286 287 287 288 289 289 290 290 290 290 290 289 288 287 286 284
230 231 232 234 235 237 238 240 242 245 248 251 254 256 259 261 263 265 267 270 273 275 277 279 280 282 284 285 286 287 289 290 290 291 291 291 291 291 290 289 288 286 284
231 232 233 234 236 237 239 241 243 246 249 252 254 256 259 261 263 265 267 270 272 274 276 278 280 282 283 284 286 288 289 290 291 292 292 292 292 291 290 289 288 287 285
230 232 233 234 236 238 240 242 244 246 249 251 254 256 258 260 262 265 267 270 271 273 275 277 279 281 282 284 286 287 289 290 291 292 292 293 292 292 291 291 289 288 286
231 232 234 235 236 238 240 242 244 246 249 251 253 256 258 260 262 265 267 269 271 273 275 277 279 281 283 284 286 287 289 290 291 292 293 294 294 293 293 292 291 291 289
231 231 233 235 236 238 240 242 243 246 248 250 253 255 257 259 262 264 267 269 271 273 275 277 279 281 283 285 286 287 289 290 291 293 295 296 297 297 295 294 293 291 290
231 232 232 234 235 237 239 241 243 245 247 249 252 255 257 259 262 264 267 269 271 273 275 276 278 281 283 284 285 287 290 291 293 295 296 298 298 299 298 297 296 294 291
232 232 233 234 235 237 239 240 242 244 246 249 251 254 256 259 262 264 266 269 271 273 275 277 279 281 282 284 285 288 290 292 294 296 297 299 300 301 301 300 298 297 295
233 233 235 236 237 238 240 241 243 245 247 249 251 254 257 260 262 264 266 269 271 272 275 277 279 281 282 284 286 289 291 294 296 297 298 299 301 303 305 304 302 300 298
235 236 237 238 239 240 242 243 244 246 247 249 252 255 258 260 262 264 266 268 270 272 274 276 279 280 282 284 287 290 292 295 297 298 300 301 303 304 306 306 305 303 302
237 237 239 239 240 241 243 244 245 246 248 251 253 256 258 260 262 264 266 268 270 272 274 276 278 280 282 285 288 291 293 295 297 299 300 302 304 305 306 306 306 305 303
237 238 238 239 240 241 243 244 246 248 250 252 254 255 257 259 261 263 265 267 269 271 274 276 279 281 283 286 288 291 294 295 297 299 301 304 305 306 307 308 308 307 305
238 239 239 240 241 242 244 245 246 248 249 251 253 254 256 258 260 262 264 267 269 272 275 277 280 282 284 287 290 292 294 296 297 300 302 303 305 306 307 308 308 307 306
237 238 239 241 242 243 244 245 246 247 249 251 252 254 256 257 260 263 265 267 270 273 275 279 281 283 285 288 290 293 295 296 298 300 302 303 304 305 306 306 306 306 306
238 240 241 242 243 244 245 245 246 247 248 250 252 253 255 258 261 264 266 269 270 273 276 280 282 284 286 289 291 293 295 297 299 301 302 304 305 305 306 306 306 306 306
239 241 243 245 245 246 246 247 247 248 248 249 251 253 255 258 262 264 267 269 271 275 278 281 283 285 287 290 292 294 296 298 300 302 303 304 305 305 306 307 307 307 307
242 244 246 246 247 247 247 247 247 248 247 248 250 253 256 259 262 264 267 270 273 277 279 281 283 286 289 291 293 295 297 299 300 301 302 304 305 306 307 308 308 308 309
244 246 246 246 247 246 246 246 247 247 248 249 251 254 256 258 261 265 269 272 274 277 279 282 284 287 290 292 294 296 298 300 301 302 303 304 305 307 307 308 308 309 310
245 246 247 246 246 246 245 246 247 247 248 249 252 254 256 259 263 267 270 272 275 277 280 282 285 288 290 293 295 297 299 300 302 303 303 304 305 306 307 308 309 310 310
247 247 247 246 246 246 246 247 247 248 248 250 253 255 258 261 264 267 270 273 275 278 280 283 286 289 291 293 296 298 300 301 302 303 303 305 306 307 307 308 309 310 311
248 248 247 246 246 247 248 248 248 249 251 253 255 257 259 261 264 267 269 273 276 279 281 284 287 290 293 294 296 299 300 302 302 303 304 305 306 307 308 309 310 311 312
247 248 247 247 247 248 249 250 250 252 254 256 257 258 260 262 265 268 270 273 276 279 282 285 287 290 293 295 297 299 301 302 303 303 304 305 306 307 309 310 311 312 312
Height
5775 5780 5785 5791 5796 5801 5805 5809 5812 5815 5818 5821 5823 5825 5827 5827 5828 5829 5829 5829 5828 5828 5827 5827 5826 5824 5823 5822 5820 5818 5816 5814 5811 5809 5808 5806 5804 5802 5800 5797 5796 5794 5791
5767 5773 5778 5783 5788 5793 5797 5801 5804 5807 5810 5813 5815 5817 5819 5820 5821 5822 5822 5821 5821 5820 5819 5819 5818 5816 5815 5813 5811 5809 5807 5805 5802 5800 5797 5796 5795 5792 5789 5787 5785 5783 5781
5760 5766 5771 5776 5781 5785 5789 5793 5796 5799 5802 5805 5807 5809 5811 5812 5813 5814 5813 5813 5812 5812 5811 5810 5809 5808 5806 5805 5803 5800 5798 5796 5793 5790 5787 5785 5784 5782 5779 5776 5773 5771 5769
5753 5758 5763 5768 5772 5777 5781 5785 5788 5791 5794 5797 5799 5801 5803 5804 5805 5805 5805 5804 5804 5803 5802 5801 5800 5799 5797 5795 5793 5791 5788 5785 5783 5780 5777 5774 5772 5769 5768 5766 5762 5759 5756
5745 5750 5755 5760 5764 5768 5772 5776 5780 5783 5786 5788 5790 5792 5794 5795 5796 5796 5796 5796 5795 5794 5793 5792 5791 5789 5787 5785 5783 5781 5778 5775 5772 5769 5766 5762 5759 5756 5753 5752 5750 5746 5742
5736 5741 5746 5751 5756 5760 5764 5767 5771 5774 5777 5779 5781 5783 5785 5786 5787 5787 5787 5787 5786 5785 5784 5783 5781 5780 5778 5776 5773 5771 5768 5765 5762 5759 5755 5751 5748 5744 5740 5737 5735 5731 5728
5728 5733 5737 5742 5747 5751 5755 5758 5762 5765 5768 5770 5772 5774 5776 5777 5777 5778 5778 5777 5777 5776 5775 5773 5772 5770 5768 5766 5764 5761 5758 5755 5751 5748 5744 5740 5736 5732 5727 5723 5719 5716 5712
5719 5724 5728 5733 5737 5741 5746 5749 5753 5756 5758 5761 5763 5765 5766 5767 5768 5768 5768 5768 5767 5766 5765 5764 5762 5761 5759 5756 5754 5751 5748 5744 5741 5737 5733 5728 5724 5719 5714 5709 5704 5699 5696
5710 5715 5719 5723 5728 5732 5736 5740 5743 5746 5749 5751 5753 5755 5756 5757 5758 5758 5758 5758 5757 5756 5755 5754 5752 5751 5749 5746 5744 5741 5738 5734 5730 5726 5722 5717 5712 5707 5701 5695 5690 5685 5680
5702 5706 5710 5714 5718 5723 5727 5730 5734 5737 5739 5742 5744 5745 5747 5748 5748 5749 5748 5748 5747 5746 5745 5744 5742 5741 5739 5736 5734 5731 5728 5724 5720 5716 5711 5706 5700 5695 5689 5683 5677 5671 5666
5694 5697 5701 5705 5709 5713 5717 5721 5724 5727 5730 5732 5734 5736 5737 5738 5739 5739 5739 5738 5738 5737 5736 5734 5733 5731 5729 5726 5724 5721 5718 5714 5710 5705 5700 5695 5689 5683 5677 5671 5665 5659 5654
5686 5690 5694 5697 5701 5705 5708 5712 5715 5718 5720 5723 5725 5726 5727 5728 5729 5729 5729 5729 5728 5727 5726 5725 5723 5721 5719 5717 5714 5711 5708 5704 5700 5695 5690 5685 5679 5673 5667 5660 5654 5649 5644
5679 5682 5686 5689 5693 5696 5699 5702 5706 5708 5711 5713 5715 5717 5718 5719 5719 5720 5720 5719 5719 5718 5716 5715 5713 5712 5709 5707 5704 5701 5698 5694 5690 5685 5680 5675 5669 5664 5658 5652 5646 5641 5636
5672 5675 5678 5681 5685 5688 5691 5694 5696 5699 5702 5704 5706 5707 5709 5709 5710 5710 5710 5710 5709 5708 5707 5706 5704 5702 5700 5698 5695 5692 5688 5685 5680 5676 5671 5666 5661 5655 5650 5644 5639 5634 5629
5665 5668 5671 5674 5676 5679 5682 5685 5688 5690 5693 5695 5696 5698 5699 5700 5701 5701 5701 5701 5700 5699 5698 5697 5695 5693 5691 5689 5686 5683 5679 5676 5672 5667 5663 5658 5653 5647 5642 5637 5632 5627 5623
5658 5661 5663 5666 5669 5671 5674 5677 5679 5681 5684 5686 5687 5689 5690 5691 5692 5692 5692 5692 5691 5690 5689 5688 5686 5684 5682 5680 5677 5674 5671 5667 5663 5659 5655 5650 5645 5640 5636 5631 5626 5621 5617
5652 5655 5657 5659 5662 5664 5666 5669 5671 5673 5675 5677 5679 5680 5681 5682 5683 5683 5683 5683 5682 5682 5680 5679 5678 5676 5674 5671 5668 5665 5662 5659 5655 5651 5647 5643 5638 5633 5629 5624 5620 5615 5611
5647 5649 5651 5653 5655 5657 5659 5662 5664 5666 5667 5669 5671 5672 5673 5674 5675 5675 5675 5675 5674 5673 5672 5671 5669 5667 5665 5663 5660 5657 5654 5651 5647 5643 5639 5635 5631 5626 5622 5618 5613 5608 5604
5641 5643 5645 5647 5649 5651 5652 5654 5656 5658 5660 5661 5663 5664 5665 5666 5667 5667 5667 5666 5666 5665 5664 5663 5661 5659 5657 5655 5652 5649 5646 5643 5639 5636 5632 5628 5623 5619 5615 5610 5606 5601 5596
5636 5637 5639 5641 5643 5644 5646 5648 5649 5651 5652 5654 5656 5657 5658 5658 5659 5659 5659 5659 5658 5657 5656 5655 5653 5651 5649 5647 5644 5641 5638 5635 5632 5628 5624 5620 5616 5611 5607 5602 5598 5593 5588
5630 5632 5633 5635 5636 5638 5639 5641 5643 5644 5646 5647 5648 5649 5650 5651 5651 5651 5651 5651 5651 5650 5649 5647 5646 5644 5642 5639 5636 5633 5631 5627 5624 5620 5616 5612 5608 5603 5599 5594 5589 5584 5579
5625 5626 5628 5629 5630 5632 5633 5635 5636 5638 5639 5640 5642 5643 5643 5644 5644 5644 5644 5644 5643 5642 5641 5640 5638 5636 5634 5632 5629 5626 5623 5620 5616 5612 5608 5604 5600 5595 5590 5585 5580 5575 5569
5619 5621 5622 5623 5625 5626 5627 5629 5630 5631 5633 5634 5635 5636 5636 5637 5637 5637 5637 5636 5636 5635 5634 5632 5631 5629 5627 5624 5621 5618 5615 5612 5608 5604 5600 5596 5591 5587 5582 5576 5571 5565 5559
5613 5615 5616 5617 5619 5620 5621 5623 5624 5625 5626 5627 5628 5629 5630 5630 5630 5630 5630 5629 5629 5628 5627 5625 5623 5621 5619 5617 5614 5611 5607 5604 5600 5596 5592 5587 5582 5578 5572 5567 5561 5555 5549
5608 5609 5610 5611 5613 5614 5615 5616 5618 5619 5620 5621 5622 5622 5623 5623 5623 5623 5623 5622 5621 5620 5619 5618 5616 5614 5611 5609 5606 5603 5599 5595 5592 5587 5583 5578 5573 5568 5563 5557 5551 5544 5538
5602 5603 5604 5605 5607 5608 5609 5610 5611 5612 5613 5614 5615 5615 5616 5616 5616 5616 5615 5615 5614 5613 5611 5610 5608 5606 5603 5600 5597 5594 5591 5587 5583 5578 5574 5569 5564 5559 5553 5547 5540 5533 5526